Find Kuiper-00076

NORAD ID: 64823 Int'l Des: 2025-151 Owner: KUIP Country: US Constellation: kuiper operational
LEOCIRCULAR

リアルタイム位置

3D地球を読み込み中...

Kuiper-00076について

説明を読み込み中...

次回通過

Passes for default location (London). Set your location on the main map for personalized predictions.

高度履歴

Loading altitude history...

軌道要素

1 64823U 25151H 26106.44943455 -.00006350 00000-0 -80481-3 0 9990
2 64823 51.9017 126.1128 0000668 71.4670 288.6365 14.79932153 41001
Epoch: Apr 16, 2026 • Age: 11 hours

現在のステータス

高度 637.3 km
速度 7.54 km/s
衛星直下点 -25.75°S, 159.15°E
打ち上げ日 Jul 16, 2025
運用期間 0.7 years
タイプ internet

技術仕様

分類 Payload
質量 490.00 kg
乾燥質量 490.00 kg
総質量 490.00 kg
長さ 1.80 m
直径 0.70 m
スパン 5.00 m
形状 Box + 2 pan
製造者 KUIP
バスタイプ Kuiper
フェーズステータス In Orbit
所有者/国 KUIP/US

Most Searched